| time (UTC) | temp F | wind direction | speed MPH | gust MPH | rain 1hr in | rain 24hr in | rain mn in | humidity % | barometer mb |
| 20260504100547 | 49 | 193 | 0.0 | 0.0 | 0.00 | 0.00 | 0.00 | 69 | |
| 20260504080547 | 52 | 232 | 1.0 | 4.0 | 0.00 | 0.00 | 0.00 | 69 | |
| 20260504050547 | 56 | 162 | 0.0 | 0.0 | 0.00 | 0.00 | 0.00 | 69 | |
| 20260504045154 | 56 | 162 | 0.0 | 0.0 | 0.00 | 0.00 | 0.00 | 69 | |
| 20260504045046 | 56 | 162 | 0.0 | 0.0 | 0.00 | 0.00 | 0.00 | 69 | |
| 20260504043547 | 57 | 162 | 0.0 | 0.0 | 0.00 | 0.00 | 0.00 | 69 | |
| 20260504042320 | 58 | 254 | 0.0 | 0.0 | 0.00 | 0.00 | 0.00 | 69 | |
| 20260504042046 | 58 | 254 | 0.0 | 0.0 | 0.00 | 0.00 | 0.00 | 69 | |
| 20260504040547 | 59 | 199 | 0.0 | 2.0 | 0.00 | 0.00 | 0.00 | 69 | |
| 20260504035307 | 60 | 260 | 0.0 | 2.0 | 0.00 | 0.00 | 0.00 | 69 | |
| 20260504035047 | 60 | 260 | 0.0 | 2.0 | 0.00 | 0.00 | 0.00 | 69 | |
| 20260504033547 | 61 | 216 | 2.0 | 4.0 | 0.00 | 0.00 | 0.00 | 69 | |
| 20260504032046 | 62 | 215 | 3.0 | 5.0 | 0.00 | 0.00 | 0.00 | 69 | |
| 20260504030547 | 62 | 215 | 2.0 | 10.0 | 0.00 | 0.00 | 0.00 | 69 | |
| 20260504025307 | 63 | 229 | 2.0 | 3.0 | 0.00 | 0.00 | 0.00 | 69 | |
| 20260504025046 | 63 | 229 | 2.0 | 3.0 | 0.00 | 0.00 | 0.00 | 69 | |
| 20260504023547 | 64 | 239 | 4.0 | 4.0 | 0.00 | 0.00 | 0.00 | 69 | |
| 20260504022047 | 64 | 203 | 3.0 | 5.0 | 0.00 | 0.00 | 0.00 | 69 | |
| 20260504020545 | 64 | 219 | 3.0 | 7.0 | 0.00 | 0.00 | 0.00 | 69 | 1016.3 |
| 20260504015253 | 65 | 216 | 3.0 | 8.0 | 0.00 | 0.00 | 0.00 | 69 | |
| 20260504015045 | 65 | 216 | 3.0 | 8.0 | 0.00 | 0.00 | 0.00 | 69 |